Regional Weather Roundup
Issued by NWS Charleston, SC

Current Version | Previous Version | Text Only | Print | Product List | Glossary Off
Versions: 1 2 3 4 5 6 7 8 9 10 11 12 13 14 15 16 17 18 19 20 21 22 23 24 25 26 27 28 29 30 31 32 33 34 35 36 37 38 39 40 41 42 43 44 45 46 47 48 49 50

000
ASUS42 KCHS 271412
RWRCHS

REGIONAL WEATHER ROUNDUP
NATIONAL WEATHER SERVICE CHARLESTON SC
1000 AM EDT WED MAY 27 2015

NOTE: "FAIR" INDICATES FEW OR NO CLOUDS BELOW 12,000 FEET WITH NO
SIGNIFICANT WEATHER AND/OR OBSTRUCTIONS TO VISIBILITY.

NOT ALL STATIONS ARE QUALITY CONTROLLED BY THE NATIONAL
WEATHER SERVICE. USE DATA WITH CAUTION...ESPECIALLY
DEWPOINT OBSERVATIONS.

SCZ027-030-031-034>040-042>050-271500-
...SOUTHEAST SOUTH CAROLINA...

CITY           SKY/WX    TMP DP  RH WIND       PRES   REMARKS
N CHARLESTON   MOSUNNY   82  67  60 S7        30.27F
WATERFRONT PAR   N/A     79  68  69 S5        30.25R
MOUNT PLEASANT FAIR      81  66  61 S7        30.28S
JOHNS ISLAND   CLOUDY    81  66  61 CALM      30.28S
PINOPOLIS        N/A     82  72  69 VRB2      30.21S
MONCKS CORNER  PTSUNNY   82  68  61 SW5       30.27F
SUMMERVILLE    NOT AVBL
BEAUFORT MCAS  MOSUNNY   83  68  60 SE5       30.27S
BEAUFORT ARPT  FAIR      79  68  69 CALM      30.26F HAZE
HILTON HEAD IS MOSUNNY   81  68  65 S7        30.28S
WALTERBORO     MOSUNNY   79  68  69 S3        30.27F
ALLENDALE      PTSUNNY   79  72  78 CALM      30.26S

...SOUTHERN MIDLANDS AND PEE DEE...

CITY           SKY/WX    TMP DP  RH WIND       PRES   REMARKS
GEORGETOWN     NOT AVBL
KINGSTREE      NOT AVBL
ORANGEBURG     MOSUNNY   77  70  79 S6        30.27F
BARNWELL       CLOUDY    75  72  88 CALM      30.28S
AIKEN          CLOUDY    70  66  88 CALM      30.31S
MANNING        CLOUDY    79  57  47 S7        30.27F
COLUMBIA       PTSUNNY   76  68  76 S3        30.26F
SUMTER         PTSUNNY   79  70  72 SW8       30.25F
FLORENCE       MOSUNNY   80  71  74 VRB7      30.27F
MYRTLE BEACH   PTSUNNY   82  72  69 S9        30.30S
N MYRTLE BEACH MOSUNNY   79  69  71 S10       30.28F

$$

GAZ063-065-086>088-099>101-113>116-118-119-134>141-150-271500-
...SOUTHEAST GEORGIA...

CITY           SKY/WX    TMP DP  RH WIND       PRES   REMARKS
SAVANNAH ARPT  PTSUNNY   80  64  58 E8        30.26S
HUNTER AAF     MOSUNNY   81  69  67 SE7       30.24S
FORT STEWART   MOSUNNY   81  67  61 E9        30.24S
STATESBORO     CLOUDY    76  76 100 SE3       30.27S
SYLVANIA       CLOUDY    79  74  82 CALM      30.28S
CLAXTON        PTSUNNY   79  72  78 SE3       30.26S

...CSRA...CENTRAL AND FAR SOUTHEAST GEORGIA...

CITY           SKY/WX    TMP DP  RH WIND       PRES   REMARKS
THOMSON        MOSUNNY   74  71  87 W3        30.31F
AUGUSTA-BUSH   CLOUDY    73  69  87 CALM      30.26F
AUGUSTA-DANIEL CLOUDY    73  68  84 CALM      30.28S
SWAINSBORO     CLOUDY   N/A N/A N/A CALM      30.28R
VIDALIA        PTSUNNY   73  70  88 CALM      30.27S
EASTMAN        CLOUDY    75  75  99 CALM      30.28S
HAZLEHURST     CLOUDY    75  74  95 CALM      30.25S
ALMA           MOSUNNY   78  70  76 S8        30.25F
WAYCROSS       PTSUNNY   79  72  79 S7        30.25S
JESUP          PTSUNNY   84  73  70 SE7       30.26S HX  91
BAXLEY         PTSUNNY   79  72  78 S5        30.25S
BRUNSWICK      MOSUNNY   81  64  57 E8        30.26S
SAINT SIMONS   NOT AVBL

$$

SCZ027-028-034-036>038-045-046-048>050-GAZ119-141-271500-
...LAKE AND SUPPLEMENTAL COASTAL OBSERVATIONS...

STATION/POSITION TIME  TEMP    WIND        PRES    WAVE   SWELL
                       AIR SEA DIR/SP/G            HT/PER HT/PER/DIR
                 (UTC) (F)     (DEG/KT/KT) (MB)    (FT/S) (FT/S/D)
UPR LAKE MARION  NOT AVBL
WINYAH BAY       NOT AVBL
LAKE MURRAY      1300   75     190/  4/  5 1024.4R
ACE BASIN NERRS  NOT AVBL
FORT PULASKI     1300   79 78  150/  4/  7 1025.4R
SAPELO ISLAND    1300   81     130/  7     1024.0R

$$

ANZ835-935-AMZ111-154-330-350-352-354-370-450-454-472-271500-
...C-MAN AND BUOY OBSERVATIONS...

STATION/POSITION TIME  TEMP    WIND        PRES    WAVE   SWELL
                       AIR SEA DIR/SP/G            HT/PER HT/PER/DIR
                 (UTC) (F)     (DEG/KT/KT) (MB)    (FT/S) (FT/S/D)
BUOY 41004       1350   78 77   CALM  /  2 1024.8R   3/ 7   3/ 7
BUOY 41008       1350   77 77  140/  6/  8 1024.8R   3/ 5   3/120/ 5
FOLLY BEACH CMAN 1400   79     180/  5/  6 1025.4R
CAPERS NEARSHORE 1308   78     200/  6/  8 1025.4R
FRIPP NEARSHORE  1300   79     180/  6/  6 1024.4R


STATION/POSITION TIME  TEMP    WIND        PRES    WAVE   SWELL
                       AIR SEA DIR/SP/G            HT/PER HT/PER/DIR
                 (UTC) (F)     (DEG/KT/KT) (MB)    (FT/S) (FT/S/D)
5E ST. MARYS GA  1321      79                N/A     3/ 5
FRYING PAN BUOY  1350   78 74  200/  4/  4 1026.1R   3/ 7   3/130/ 7
BUOY 41025       1350   75 76  150/ 10/ 14 1025.8F   3/ 5   2/130/ 5
CAPE LOOKOUT NC  1400   74     150/  8/  9 1025.3S
BUOY 41002       1350   73 74  100/ 12/ 16 1025.5F   4/ 7   3/130/ 7
BUOY 41010       1320   77 81   80/ 16/ 19 1022.4R
ST AUGUSTINE FL  1400   77 78  110/  7/  8 1024.4R


$$



USA.gov is the U.S. government's official web portal to all federal, state and local government web resources and services.